Location: Newark
(43.0000°N, 1.6781°W)
Time: 10:06:42
(UTC+00:00)

Cosmos 2058 Rocket - Visible Passes

Search period start: 24 July 2024 00:00
Search period end: 03 August 2024 00:00
Orbit: 606 x 636 km, 82.5° (Epoch: 23 July)

Date Brightness Start Highest point End Pass type
(mag) Time Alt. Az. Time Alt. Az. Time Alt. Az.
24 Jul 4.5 21:20:14 10° NNE 21:23:41 22° ENE 21:24:46 20° E visible
24 Jul 4.3 22:57:46 10° NNW 23:01:38 32° W 23:01:58 31° W visible
25 Jul 3.6 21:37:46 10° N 21:41:54 40° ENE 21:42:47 36° ESE visible
25 Jul 5.2 23:16:35 10° NW 23:19:28 17° W 23:19:59 17° W visible
26 Jul 2.9 21:55:38 10° N 22:00:00 78° E 22:00:50 57° SSE visible
27 Jul 5.1 20:37:24 10° NE 20:39:45 14° ENE 20:41:41 11° E visible
27 Jul 3.5 22:13:45 10° NNW 22:18:01 54° W 22:18:53 45° SW visible
28 Jul 4.3 20:54:25 10° NNE 20:58:03 25° ENE 20:59:45 20° ESE visible
28 Jul 4.5 22:32:11 10° NNW 22:35:55 28° W 22:36:58 25° WSW visible
29 Jul 3.5 21:12:01 10° N 21:16:14 46° ENE 21:17:50 31° SE visible
29 Jul 5.4 22:51:09 10° NW 22:53:44 16° W 22:55:03 14° WSW visible
30 Jul 3.0 21:29:56 10° N 21:34:19 88° E 21:35:57 39° S visible
31 Jul 4.9 20:11:25 10° NNE 20:14:07 16° ENE 20:16:49 10° ESE visible
31 Jul 3.8 21:48:06 10° NNW 21:52:18 47° W 21:54:04 30° SSW visible
01 Aug 4.2 20:28:35 10° NNE 20:32:23 28° ENE 20:35:00 16° ESE visible
01 Aug 4.9 22:06:35 10° NNW 22:10:11 25° W 22:12:14 18° SW visible
02 Aug 3.3 20:46:15 10° N 20:50:33 52° E 20:53:11 22° SSE visible
02 Aug 5.7 22:25:42 10° NW 22:27:58 14° W 22:30:14 10° WSW visible
